Retour au catalogue

STARLINK-3628

ActifCommunicationsVLEO
NORAD 51783·PAYLOAD·🇺🇸 United States

Lancé Feb 25, 2022 depuis Vandenberg Space Force Base

Loading…

Prochains Passages (prochaines 24 heures)

TLE

FraisSource: CelesTrak SupGP

Époque: Sep 15, 2026, 01:48 UTC

1 51783C 22017R   26258.07548611 -.00021096  00000+0 -67849-3 0  2585
2 51783  53.1568 194.5769 0001416  92.8179  25.1414 15.31708309    18

Suivez STARLINK-3628 en temps réel avec AllMySat

Download on the App Store